Terminal Aerodrome Forecast
Issued by NWS

Home | Current Version | Previous Version | Text Only | Print | Product List | Glossary On
Versions: 1 2 3 4 5 6 7 8 9 10 11 12 13 14 15 16 17 18 19 20 21 22 23 24 25 26 27 28 29 30 31 32 33 34 35 36 37 38 39 40 41 42 43 44 45 46 47 48 49 50
000
FTUS44 KLIX 201743
TAFASD
TAF
KASD 201743Z 2018/2118 22006KT P6SM BKN060
     FM201900 21006KT P6SM SCT090
     FM210500 16005KT P6SM VCSH OVC008
      TEMPO 2108/2111 25030G48KT 1/2SM +TSRA BKN015CB
     FM211200 18007KT 5SM SHRA BR OVC003
     FM211600 21008KT P6SM BKN010=

USA.gov is the U.S. government's official web portal to all federal, state and local government web resources and services.